TimeCST,TemperatureF,Dew PointF,Humidity,Sea Level PressureIn,VisibilityMPH,Wind Direction,Wind SpeedMPH,Gust SpeedMPH,PrecipitationIn,Events,Conditions,WindDirDegrees,DateUTC
12:12 AM,60.8,59.0,94,30.02,10.0,ENE,5.8,-,N/A,,Mostly Cloudy,60,2012-12-07 06:12:00
12:44 AM,62.6,59.0,88,30.01,10.0,ENE,6.9,-,N/A,,Overcast,70,2012-12-07 06:44:00
12:53 AM,61.0,59.0,93,30.01,10.0,East,5.8,-,N/A,,Overcast,80,2012-12-07 06:53:00
1:53 AM,61.0,57.9,90,30.00,10.0,ENE,6.9,-,N/A,,Mostly Cloudy,70,2012-12-07 07:53:00
2:53 AM,59.0,57.0,93,30.00,10.0,ENE,3.5,-,N/A,,Mostly Cloudy,70,2012-12-07 08:53:00
3:06 AM,60.8,57.2,88,30.00,10.0,ENE,4.6,-,N/A,,Mostly Cloudy,70,2012-12-07 09:06:00
3:39 AM,60.8,57.2,88,29.99,10.0,East,6.9,-,N/A,,Mostly Cloudy,80,2012-12-07 09:39:00
3:53 AM,60.1,57.9,93,29.99,10.0,ENE,5.8,-,N/A,,Mostly Cloudy,70,2012-12-07 09:53:00
4:53 AM,60.1,57.9,93,30.00,10.0,ENE,3.5,-,N/A,,Overcast,70,2012-12-07 10:53:00
5:53 AM,61.0,57.9,90,30.02,10.0,East,4.6,-,N/A,,Overcast,80,2012-12-07 11:53:00
6:53 AM,61.0,57.0,87,30.02,10.0,East,8.1,-,N/A,,Overcast,80,2012-12-07 12:53:00
7:53 AM,62.1,57.9,86,30.04,10.0,East,5.8,-,N/A,,Overcast,90,2012-12-07 13:53:00
8:53 AM,62.1,57.9,86,30.05,10.0,East,8.1,-,N/A,,Overcast,80,2012-12-07 14:53:00
9:53 AM,63.0,57.9,84,30.06,10.0,ENE,8.1,-,N/A,,Overcast,60,2012-12-07 15:53:00
10:53 AM,63.0,57.9,84,30.04,10.0,ENE,8.1,-,N/A,,Overcast,60,2012-12-07 16:53:00
11:53 AM,63.0,57.9,84,30.01,10.0,Variable,3.5,-,N/A,,Overcast,0,2012-12-07 17:53:00
12:53 PM,64.0,57.9,80,29.98,10.0,Variable,4.6,-,N/A,,Overcast,0,2012-12-07 18:53:00
1:53 PM,64.9,57.9,78,29.97,10.0,NE,3.5,-,N/A,,Overcast,50,2012-12-07 19:53:00
2:53 PM,66.0,57.9,75,29.97,10.0,Calm,Calm,-,N/A,,Overcast,0,2012-12-07 20:53:00
3:04 PM,66.2,57.2,73,29.97,10.0,Calm,Calm,-,N/A,,Overcast,0,2012-12-07 21:04:00
3:53 PM,64.9,57.9,78,29.97,10.0,NNE,4.6,-,N/A,,Scattered Clouds,20,2012-12-07 21:53:00
4:53 PM,61.0,57.0,87,29.97,10.0,Calm,Calm,-,N/A,,Clear,0,2012-12-07 22:53:00
5:53 PM,60.1,57.9,93,29.98,10.0,Calm,Calm,-,N/A,,Clear,0,2012-12-07 23:53:00
7:53 PM,57.0,55.9,96,29.99,7.0,Calm,Calm,-,N/A,,Clear,0,2012-12-08 01:53:00
8:53 PM,57.0,55.9,96,30.00,7.0,Calm,Calm,-,N/A,,Mostly Cloudy,0,2012-12-08 02:53:00
9:53 PM,57.9,55.9,93,30.01,8.0,Calm,Calm,-,N/A,,Overcast,0,2012-12-08 03:53:00
10:53 PM,57.9,55.9,93,30.01,8.0,East,3.5,-,N/A,,Overcast,100,2012-12-08 04:53:00
11:53 PM,57.9,55.9,93,30.00,7.0,Calm,Calm,-,N/A,,Overcast,0,2012-12-08 05:53:00